Weather History for Presque Isle, ME

Change the Weather History Date:

Friday, March 28, 2014

  Actual Average Record
Temperature  
Mean Temperature 25 °F -  
Max Temperature 35 °F 40 °F 60 °F (1989)
Min Temperature 15 °F 21 °F -4 °F (1939)
Degree Days  
Heating Degree Days 40    
Moisture  
Dew Point 18 °F    
Average Humidity 67    
Maximum Humidity 87    
Minimum Humidity 43    
Precipitation  
Precipitation 0.08 in - - ()
Sea Level Pressure  
Sea Level Pressure 29.98 in    
Wind  
Wind Speed 4 mph (SSE)    
Max Wind Speed 14 mph    
Max Gust Speed 20 mph    
Visibility 9 miles    
Events      
Averages and records for this station are not official NWS values.
T = Trace of Precipitation, MM = Missing Value Source: NWS Daily Summary

Daily Weather History Graph

Daily Weather History Graph

Search for Another Location

Airport:

Trip Planner

Search our weather history database for the weather conditions in past years. The results will help you decide how hot, cold, wet, or windy it might be!

Date:

Astronomy

Mar. 28, 2014 Rise Set
Actual Time 6:19 AM EDT 6:55 PM EDT
Civil Twilight 5:49 AM EDT 7:26 PM EDT
Nautical Twilight 5:12 AM EDT 8:02 PM EDT
Astronomical Twilight 4:35 AM EDT 8:40 PM EDT
Moon 4:56 AM EDT (3/28) 4:41 PM EDT (3/28)
Length of Visible Light 13h 37m
Length of Day
12h 36m
Waning Crescent, 6% of the Moon is Illuminated
Mar 28
Waning Crescent
Mar 30
New
Apr 7
First Quarter
Apr 15
Full
Apr 22
Last Quarter

Hourly Weather History & Observations

Time (EDT) Temp. Windchill Dew Point Humidity Pressure Visibility Wind Dir Wind Speed Gust Speed Precip Events Conditions
12:15 AM 15.8 °F - 1.4 °F 53% 30.14 in 10.0 mi Calm Calm - N/A   Partly Cloudy
12:35 AM 15.8 °F - 1.4 °F 53% 30.14 in 10.0 mi Calm Calm - N/A   Mostly Cloudy
12:55 AM 17.6 °F - 1.4 °F 49% 30.14 in 10.0 mi Calm Calm - N/A   Overcast
1:15 AM 15.8 °F - 3.2 °F 58% 30.15 in 10.0 mi Calm Calm - N/A   Overcast
1:35 AM 17.6 °F - 3.2 °F 53% 30.15 in 10.0 mi Calm Calm - N/A   Overcast
1:55 AM 15.8 °F - 3.2 °F 58% 30.15 in 10.0 mi Calm Calm - N/A   Overcast
2:15 AM 17.6 °F - 6.8 °F 63% 30.15 in 10.0 mi Calm Calm - N/A   Overcast
2:35 AM 19.4 °F - 5.0 °F 54% 30.15 in 10.0 mi Calm Calm - N/A   Overcast
2:55 AM 19.4 °F - 6.8 °F 58% 30.15 in 10.0 mi Calm Calm - N/A   Overcast
3:15 AM 19.4 °F - 5.0 °F 54% 30.15 in 9.0 mi Calm Calm - N/A   Overcast
3:35 AM 19.4 °F - 6.8 °F 58% 30.14 in 10.0 mi Calm Calm - N/A   Overcast
3:55 AM 19.4 °F - 6.8 °F 58% 30.13 in 10.0 mi Calm Calm - N/A   Overcast
4:15 AM 19.4 °F 12.8 °F 6.8 °F 58% 30.13 in 10.0 mi South 4.6 mph - N/A   Overcast
4:35 AM 21.2 °F - 6.8 °F 54% 30.13 in 10.0 mi Calm Calm - N/A   Overcast
4:55 AM 21.2 °F - 6.8 °F 54% 30.13 in 10.0 mi Calm Calm - N/A   Overcast
5:15 AM 21.2 °F - 6.8 °F 54% 30.12 in 10.0 mi Calm Calm - N/A   Overcast
5:35 AM 23.0 °F 14.7 °F 6.8 °F 50% 30.11 in 10.0 mi SSE 6.9 mph - N/A   Overcast
5:55 AM 23.0 °F 17.0 °F 6.8 °F 50% 30.11 in 10.0 mi SE 4.6 mph - N/A   Overcast
6:15 AM 21.2 °F 13.6 °F 5.0 °F 50% 30.12 in 10.0 mi SE 5.8 mph - N/A   Overcast
6:35 AM 21.2 °F 12.6 °F 3.2 °F 46% 30.12 in 10.0 mi SSE 6.9 mph - N/A   Overcast
6:55 AM 23.0 °F 15.8 °F 3.2 °F 43% 30.12 in 10.0 mi SE 5.8 mph - N/A   Overcast
7:15 AM 23.0 °F 13.1 °F 5.0 °F 46% 30.12 in 10.0 mi SSE 9.2 mph - N/A   Overcast
7:35 AM 23.0 °F 14.7 °F 5.0 °F 46% 30.11 in 10.0 mi SE 6.9 mph - N/A   Overcast
7:55 AM 23.0 °F 17.0 °F 6.8 °F 50% 30.10 in 10.0 mi ESE 4.6 mph - N/A   Overcast
8:15 AM 23.0 °F 13.9 °F 6.8 °F 50% 30.08 in 10.0 mi SE 8.1 mph - N/A   Overcast
8:35 AM 24.8 °F 16.9 °F 6.8 °F 46% 30.07 in 10.0 mi SE 6.9 mph - N/A   Overcast
8:55 AM 23.0 °F 13.9 °F 6.8 °F 50% 30.07 in 10.0 mi South 8.1 mph - N/A   Overcast
9:15 AM 24.8 °F 17.9 °F 8.6 °F 50% 30.06 in 10.0 mi SSE 5.8 mph - N/A   Overcast
9:35 AM 24.8 °F 16.9 °F 10.4 °F 54% 30.05 in 10.0 mi SSE 6.9 mph - N/A   Overcast
9:55 AM 26.6 °F 17.5 °F 10.4 °F 51% 30.05 in 10.0 mi SSE 9.2 mph - N/A   Overcast
10:15 AM 26.6 °F 17.5 °F 12.2 °F 55% 30.05 in 10.0 mi SSE 9.2 mph - N/A   Overcast
10:35 AM 28.4 °F 21.2 °F 14.0 °F 55% 30.03 in 10.0 mi SE 6.9 mph - N/A   Overcast
10:55 AM 28.4 °F 19.7 °F 14.0 °F 55% 30.01 in 10.0 mi SSE 9.2 mph - N/A   Overcast
11:15 AM 28.4 °F 17.5 °F 17.6 °F 64% 29.99 in 4.0 mi SSE 13.8 mph 19.6 mph N/A   Overcast
11:35 AM 28.4 °F 17.5 °F 21.2 °F 74% 29.97 in 2.0 mi SSE 13.8 mph 19.6 mph N/A   Overcast
11:55 AM 28.4 °F 19.7 °F 23.0 °F 80% 29.97 in 1.2 mi SSE 9.2 mph - N/A   Overcast
12:15 PM 28.4 °F 19.7 °F 23.0 °F 80% 29.97 in 8.0 mi South 9.2 mph - N/A   Overcast
12:35 PM 30.2 °F 21.3 °F 24.8 °F 80% 29.96 in 10.0 mi SSE 10.4 mph - N/A   Overcast
12:55 PM 30.2 °F 22.6 °F 24.8 °F 80% 29.95 in 10.0 mi South 8.1 mph - N/A   Overcast
1:15 PM 32.0 °F 23.6 °F 26.6 °F 80% 29.94 in 3.0 mi SSE 10.4 mph - N/A   Overcast
1:35 PM 32.0 °F 26.4 °F 26.6 °F 80% 29.92 in 10.0 mi SSE 5.8 mph - N/A   Overcast
1:55 PM 33.8 °F 25.8 °F 26.6 °F 75% 29.91 in 10.0 mi SSE 10.4 mph - N/A   Overcast
2:15 PM 33.8 °F 26.4 °F 26.6 °F 75% 29.90 in 10.0 mi South 9.2 mph - N/A   Overcast
2:35 PM 33.8 °F 26.4 °F 26.6 °F 75% 29.89 in 10.0 mi South 9.2 mph - N/A   Overcast
2:55 PM 33.8 °F 25.3 °F 26.6 °F 75% 29.88 in 10.0 mi South 11.5 mph 17.3 mph N/A   Overcast
3:15 PM 33.8 °F 24.8 °F 26.6 °F 75% 29.87 in 10.0 mi South 12.7 mph 19.6 mph N/A   Overcast
3:35 PM 35.6 °F 27.1 °F 26.6 °F 70% 29.87 in 10.0 mi South 12.7 mph - N/A   Overcast
3:55 PM 35.6 °F 28.0 °F 26.6 °F 70% 29.86 in 10.0 mi South 10.4 mph 16.1 mph N/A   Overcast
4:15 PM 35.6 °F 29.9 °F 26.6 °F 70% 29.85 in 10.0 mi SSE 6.9 mph - N/A   Overcast
4:35 PM 35.6 °F 27.5 °F 26.6 °F 70% 29.85 in 10.0 mi South 11.5 mph - N/A   Overcast
4:55 PM 35.6 °F 29.2 °F 26.6 °F 70% 29.84 in 10.0 mi SSE 8.1 mph - N/A   Overcast
5:15 PM 35.6 °F 30.7 °F 28.4 °F 75% 29.85 in 3.0 mi South 5.8 mph - N/A   Overcast
5:35 PM 33.8 °F 29.6 °F 28.4 °F 81% 29.85 in 1.5 mi SSE 4.6 mph - 0.01 in   Overcast
5:55 PM 33.8 °F 30.8 °F 28.4 °F 81% 29.85 in 1.8 mi SE 3.5 mph - 0.04 in   Overcast
6:15 PM 33.8 °F 30.8 °F 28.4 °F 81% 29.85 in 2.5 mi SSE 3.5 mph - 0.03 in   Overcast
6:35 PM 33.8 °F 29.6 °F 28.4 °F 81% 29.84 in 3.0 mi SE 4.6 mph - 0.04 in   Overcast
6:55 PM 33.8 °F 27.0 °F 30.2 °F 87% 29.80 in 6.0 mi SE 8.1 mph - 0.04 in   Overcast
7:15 PM 33.8 °F 26.4 °F 30.2 °F 87% 29.82 in 10.0 mi SSE 9.2 mph - N/A   Overcast
7:35 PM 33.8 °F 27.7 °F 30.2 °F 87% 29.83 in 10.0 mi SSE 6.9 mph - N/A   Overcast
7:55 PM 33.8 °F 29.6 °F 30.2 °F 87% 29.83 in 10.0 mi SSE 4.6 mph - N/A   Overcast
8:15 PM 33.8 °F 27.7 °F 30.2 °F 87% 29.82 in 9.0 mi SSE 6.9 mph - N/A   Overcast
8:35 PM 33.8 °F 28.6 °F 30.2 °F 87% 29.82 in 9.0 mi SSE 5.8 mph - N/A   Overcast
8:55 PM 33.8 °F 29.6 °F 30.2 °F 87% 29.82 in 10.0 mi SSE 4.6 mph - N/A   Overcast
9:15 PM 33.8 °F 30.8 °F 30.2 °F 87% 29.83 in 9.0 mi SSE 3.5 mph - N/A   Overcast
9:35 PM 33.8 °F 30.8 °F 30.2 °F 87% 29.82 in 9.0 mi SSE 3.5 mph - N/A   Overcast
9:55 PM 35.6 °F 32.8 °F 30.2 °F 81% 29.82 in 9.0 mi ESE 3.5 mph - N/A   Overcast
10:15 PM 35.6 °F - 30.2 °F 81% 29.82 in 10.0 mi Calm Calm - N/A   Overcast
10:35 PM 35.6 °F - 30.2 °F 81% 29.83 in 8.0 mi Calm Calm - N/A   Overcast
10:55 PM 33.8 °F 28.6 °F 30.2 °F 87% 29.83 in 5.0 mi SSE 5.8 mph - N/A   Overcast
11:15 PM 35.6 °F 32.8 °F 30.2 °F 81% 29.84 in 10.0 mi SSE 3.5 mph - N/A   Overcast
11:35 PM 35.6 °F 32.8 °F 32.0 °F 87% 29.85 in 9.0 mi SE 3.5 mph - N/A   Overcast
11:55 PM 35.6 °F - 30.2 °F 81% 29.85 in 10.0 mi Calm Calm - N/A   Overcast